Terminal Aerodrome Forecast
Issued by NWS St Louis, MO

Home | Current Version | Previous Version | Text Only | Print | Product List | Glossary On
Versions: 1 2 3 4 5 6 7 8 9 10 11 12 13 14 15 16 17 18 19 20 21 22 23 24 25 26 27 28 29 30 31
000
FTUS43 KLSX 260300 AAA
TAFSTL
TAF AMD
KSTL 260322Z 2603/2706 15004KT P6SM SCT250
     FM261500 25005KT P6SM FEW040
     FM261800 32006KT P6SM FEW050
     FM270000 10005KT P6SM SKC=

USA.gov is the U.S. government's official web portal to all federal, state and local government web resources and services.